Location: Kellogg
(38.0159°N, 90.0546°W)
Time: 20:49:57
(UTC+00:00)

Vanguard 1 - Pass Details

Date: 22 September 2024
Orbit: 648 x 3825 km, 34.3° (Epoch: 11 October)

Event Time Altitude Azimuth Distance (km) Brightness Sun altitude
Rises 17:21:05 0° 252° (WSW) 7,445 14.6 51.2°
Reaches altitude 10° 17:26:42 10° 250° (WSW) 6,046 14.3 51.4°
Maximum altitude 17:43:28 70° 172° (S) 2,089 13.5 51.8°
Drops below altitude 10° 17:52:15 10° 91° (E) 3,372 12.9 51.9°
Sets 17:54:30 0° 88° (E) 4,072 13.2 51.9°
